| time (UTC) | temp F | wind direction | speed knots | gust knots | rain 1hr in | rain 24hr in | rain mn in | humidity % | barometer mb |
| 20260902043038 | 84 | 0 | 0.0 | 0.0 | 0.00 | 0.00 | 0.00 | 46 | 1014.1 |
| 20260902041539 | 84 | 0 | 0.0 | 0.0 | 0.00 | 0.00 | 0.00 | 45 | 1014.0 |
| 20260902040041 | 84 | 0 | 0.0 | 0.0 | 0.00 | 0.00 | 0.00 | 45 | 1014.0 |
| 20260902034555 | 84 | 0 | 0.0 | 0.0 | 0.00 | 0.00 | 0.00 | 45 | 1014.1 |
| 20260902033054 | 84 | 0 | 0.0 | 0.0 | 0.00 | 0.00 | 0.00 | 44 | 1014.1 |
| 20260902031540 | 85 | 0 | 0.0 | 0.0 | 0.00 | 0.00 | 0.00 | 44 | 1014.0 |
| 20260902030044 | 85 | 0 | 0.0 | 0.0 | 0.00 | 0.00 | 0.00 | 43 | 1013.7 |
| 20260902024545 | 86 | 0 | 0.0 | 0.0 | 0.00 | 0.00 | 0.00 | 41 | 1013.5 |
| 20260902023038 | 87 | 0 | 0.0 | 0.0 | 0.00 | 0.00 | 0.00 | 40 | 1013.4 |
| 20260902021538 | 87 | 0 | 0.0 | 0.0 | 0.00 | 0.00 | 0.00 | 40 | 1013.1 |
| 20260902020042 | 88 | 0 | 0.0 | 0.0 | 0.00 | 0.00 | 0.00 | 40 | 1013.0 |
| 20260902014540 | 88 | 0 | 0.0 | 0.0 | 0.00 | 0.00 | 0.00 | 40 | 1012.9 |
| 20260902013040 | 89 | 0 | 0.0 | 0.0 | 0.00 | 0.00 | 0.00 | 37 | 1012.7 |
| 20260902011544 | 90 | 0 | 0.0 | 0.0 | 0.00 | 0.00 | 0.00 | 36 | 1012.5 |
| 20260902010041 | 91 | 0 | 0.0 | 0.0 | 0.00 | 0.00 | 0.00 | 35 | 1012.5 |
| 20260902004541 | 92 | 0 | 0.0 | 0.0 | 0.00 | 0.00 | 0.00 | 33 | 1012.5 |
| 20260902003046 | 94 | 0 | 0.0 | 0.9 | 0.00 | 0.00 | 0.00 | 31 | 1012.5 |
| 20260902001542 | 94 | 0 | 0.0 | 1.7 | 0.00 | 0.00 | 0.00 | 30 | 1012.7 |
| 20260902000040 | 95 | 151 | 0.0 | 1.7 | 0.00 | 0.00 | 0.00 | 29 | 1012.8 |
| 20260901234550 | 96 | 0 | 0.0 | 2.6 | 0.00 | 0.00 | 0.00 | 28 | 1012.8 |
| 20260901233044 | 96 | 171 | 0.9 | 2.6 | 0.00 | 0.00 | 0.00 | 28 | 1012.9 |
| 20260901231541 | 96 | 167 | 0.0 | 2.6 | 0.00 | 0.00 | 0.00 | 29 | 1013.0 |
| 20260901230041 | 96 | 180 | 1.7 | 3.5 | 0.00 | 0.00 | 0.00 | 29 | 1013.0 |
| 20260901224551 | 96 | 0 | 0.0 | 2.6 | 0.00 | 0.00 | 0.00 | 28 | 1013.0 |
| 20260901223040 | 97 | 168 | 0.0 | 2.6 | 0.00 | 0.00 | 0.00 | 27 | 1013.0 |
| 20260901221544 | 97 | 174 | 0.9 | 3.5 | 0.00 | 0.00 | 0.00 | 26 | 1013.1 |
| 20260901220042 | 98 | 166 | 1.7 | 4.3 | 0.00 | 0.00 | 0.00 | 25 | 1013.1 |
| 20260901214545 | 98 | 167 | 0.9 | 3.5 | 0.00 | 0.00 | 0.00 | 26 | 1013.2 |
| 20260901213044 | 98 | 169 | 0.0 | 3.5 | 0.00 | 0.00 | 0.00 | 26 | 1013.3 |
| 20260901211542 | 98 | 174 | 0.9 | 3.5 | 0.00 | 0.00 | 0.00 | 26 | 1013.4 |
| 20260901210041 | 97 | 0 | 0.0 | 3.5 | 0.00 | 0.00 | 0.00 | 27 | 1013.6 |
| 20260901204540 | 97 | 165 | 0.9 | 3.5 | 0.00 | 0.00 | 0.00 | 27 | 1013.7 |
| 20260901203048 | 97 | 171 | 0.0 | 4.3 | 0.00 | 0.00 | 0.00 | 29 | 1013.8 |
| 20260901201540 | 95 | 205 | 1.7 | 4.3 | 0.00 | 0.00 | 0.00 | 31 | 1014.1 |
| 20260901200059 | 96 | 162 | 0.9 | 3.5 | 0.00 | 0.00 | 0.00 | 30 | 1014.4 |
| 20260901194549 | 95 | 217 | 0.9 | 4.3 | 0.00 | 0.00 | 0.00 | 31 | 1014.4 |
| 20260901193044 | 95 | 171 | 1.7 | 4.3 | 0.00 | 0.00 | 0.00 | 30 | 1014.6 |
| 20260901191545 | 95 | 197 | 0.9 | 4.3 | 0.00 | 0.00 | 0.00 | 30 | 1014.8 |
| 20260901190051 | 95 | 181 | 0.9 | 5.2 | 0.00 | 0.00 | 0.00 | 32 | 1015.0 |
| 20260901184546 | 95 | 148 | 0.9 | 2.6 | 0.00 | 0.00 | 0.00 | 33 | 1015.3 |
| 20260901183041 | 94 | 162 | 0.0 | 2.6 | 0.00 | 0.00 | 0.00 | 34 | 1015.7 |
| 20260901181549 | 94 | 174 | 0.9 | 3.5 | 0.00 | 0.00 | 0.00 | 33 | 1015.8 |
| 20260901180043 | 94 | 180 | 1.7 | 4.3 | 0.00 | 0.00 | 0.00 | 34 | 1016.1 |
| 20260901174543 | 95 | 151 | 0.9 | 4.3 | 0.00 | 0.00 | 0.00 | 33 | 1016.2 |
| 20260901173047 | 96 | 167 | 0.0 | 2.6 | 0.00 | 0.00 | 0.00 | 32 | 1016.3 |
| 20260901171556 | 95 | 140 | 0.0 | 2.6 | 0.00 | 0.00 | 0.00 | 33 | 1016.5 |
| 20260901170039 | 93 | 158 | 0.9 | 5.2 | 0.00 | 0.00 | 0.00 | 35 | 1016.6 |
| 20260901164544 | 93 | 0 | 0.0 | 4.3 | 0.00 | 0.00 | 0.00 | 37 | 1016.9 |
| 20260901163040 | 91 | 0 | 0.0 | 2.6 | 0.00 | 0.00 | 0.00 | 39 | 1016.9 |
| 20260901161545 | 91 | 127 | 0.0 | 1.7 | 0.00 | 0.00 | 0.00 | 39 | 1017.0 |
| 20260901160041 | 90 | 84 | 0.0 | 1.7 | 0.00 | 0.00 | 0.00 | 41 | 1017.0 |
| 20260901154625 | 89 | 93 | 0.0 | 1.7 | 0.00 | 0.00 | 0.00 | 44 | 1017.0 |
| 20260901153041 | 88 | 0 | 0.0 | 0.9 | 0.00 | 0.00 | 0.00 | 46 | 1016.9 |
| 20260901151545 | 87 | 0 | 0.0 | 0.9 | 0.00 | 0.00 | 0.00 | 51 | 1016.8 |
| 20260901150043 | 86 | 0 | 0.0 | 2.6 | 0.00 | 0.00 | 0.00 | 62 | 1017.0 |
| 20260901144541 | 85 | 0 | 0.0 | 1.7 | 0.00 | 0.00 | 0.00 | 64 | 1017.1 |
| 20260901143045 | 84 | 0 | 0.0 | 1.7 | 0.00 | 0.00 | 0.00 | 66 | 1017.1 |
| 20260901141540 | 82 | 0 | 0.0 | 2.6 | 0.00 | 0.00 | 0.00 | 69 | 1017.1 |
| 20260901140044 | 81 | 0 | 0.0 | 3.5 | 0.00 | 0.00 | 0.00 | 75 | 1017.2 |
| 20260901134539 | 78 | 0 | 0.0 | 2.6 | 0.00 | 0.00 | 0.00 | 82 | 1017.2 |
| 20260901133044 | 76 | 0 | 0.0 | 1.7 | 0.00 | 0.00 | 0.00 | 87 | 1017.1 |
| 20260901131542 | 76 | 0 | 0.0 | 0.9 | 0.00 | 0.00 | 0.00 | 88 | 1016.9 |
| 20260901130042 | 74 | 0 | 0.0 | 0.9 | 0.00 | 0.00 | 0.00 | 88 | 1016.7 |
| 20260901124541 | 74 | 0 | 0.0 | 0.0 | 0.00 | 0.00 | 0.00 | 88 | 1016.5 |
| 20260901123048 | 73 | 0 | 0.0 | 0.0 | 0.00 | 0.00 | 0.00 | 88 | 1016.4 |
| 20260901121559 | 73 | 0 | 0.0 | 0.0 | 0.00 | 0.00 | 0.00 | 87 | 1016.2 |
| 20260901120041 | 73 | 0 | 0.0 | 0.0 | 0.00 | 0.00 | 0.00 | 88 | 1016.1 |
| 20260901114540 | 73 | 0 | 0.0 | 0.0 | 0.00 | 0.00 | 0.00 | 87 | 1016.0 |
| 20260901113044 | 74 | 0 | 0.0 | 0.0 | 0.00 | 0.00 | 0.00 | 87 | 1015.9 |
| 20260901111540 | 73 | 0 | 0.0 | 0.0 | 0.00 | 0.00 | 0.00 | 86 | 1015.8 |
| 20260901110041 | 73 | 0 | 0.0 | 0.0 | 0.00 | 0.00 | 0.00 | 83 | 1015.6 |
| 20260901104554 | 73 | 0 | 0.0 | 0.0 | 0.00 | 0.00 | 0.00 | 74 | 1015.5 |
| 20260901103042 | 75 | 0 | 0.0 | 0.9 | 0.00 | 0.00 | 0.00 | 69 | 1015.5 |
| 20260901101542 | 79 | 0 | 0.0 | 0.9 | 0.00 | 0.00 | 0.00 | 59 | 1015.5 |
| 20260901100055 | 82 | 129 | 0.0 | 0.9 | 0.00 | 0.00 | 0.00 | 50 | 1015.5 |
| 20260901094542 | 82 | 117 | 0.0 | 1.7 | 0.00 | 0.00 | 0.00 | 49 | 1015.4 |
| 20260901093050 | 82 | 120 | 0.0 | 0.9 | 0.00 | 0.00 | 0.00 | 49 | 1015.6 |
| 20260901091541 | 83 | 0 | 0.0 | 0.9 | 0.00 | 0.00 | 0.00 | 48 | 1015.7 |
| 20260901090042 | 83 | 116 | 0.0 | 2.6 | 0.00 | 0.00 | 0.00 | 46 | 1015.7 |
| 20260901084541 | 83 | 56 | 0.9 | 3.5 | 0.00 | 0.00 | 0.00 | 45 | 1015.5 |
| 20260901083042 | 83 | 0 | 0.0 | 3.5 | 0.00 | 0.00 | 0.00 | 44 | 1015.5 |
| 20260901081540 | 83 | 105 | 1.7 | 3.5 | 0.00 | 0.00 | 0.00 | 43 | 1015.5 |
| 20260901080045 | 82 | 123 | 0.0 | 2.6 | 0.00 | 0.00 | 0.00 | 42 | 1015.4 |
| 20260901074542 | 82 | 112 | 0.0 | 1.7 | 0.00 | 0.00 | 0.00 | 43 | 1015.4 |
| 20260901073047 | 81 | 0 | 0.0 | 0.9 | 0.00 | 0.00 | 0.00 | 44 | 1015.3 |
| 20260901071542 | 80 | 0 | 0.0 | 0.9 | 0.00 | 0.00 | 0.00 | 45 | 1015.3 |
| 20260901070042 | 81 | 0 | 0.0 | 0.0 | 0.00 | 0.00 | 0.00 | 44 | 1015.3 |
| 20260901064545 | 82 | 0 | 0.0 | 0.0 | 0.00 | 0.00 | 0.00 | 42 | 1015.2 |
| 20260901063042 | 81 | 148 | 0.0 | 0.9 | 0.00 | 0.00 | 0.00 | 44 | 1015.2 |
| 20260901061541 | 81 | 0 | 0.0 | 0.0 | 0.00 | 0.00 | 0.00 | 46 | 1015.1 |
| 20260901060044 | 80 | 138 | 0.0 | 0.9 | 0.00 | 0.00 | 0.00 | 45 | 1014.9 |
| 20260901054538 | 78 | 0 | 0.0 | 0.0 | 0.00 | 0.00 | 0.00 | 44 | 1014.8 |
| 20260901053040 | 79 | 0 | 0.0 | 0.0 | 0.00 | 0.00 | 0.00 | 45 | 1014.6 |
| 20260901051545 | 79 | 0 | 0.0 | 0.0 | 0.00 | 0.00 | 0.00 | 43 | 1014.5 |
| 20260901050040 | 79 | 0 | 0.0 | 0.0 | 0.00 | 0.00 | 0.00 | 42 | 1014.4 |
| 20260901044553 | 80 | 0 | 0.0 | 0.0 | 0.00 | 0.00 | 0.00 | 41 | 1014.3 |